User: anonymous
Location: Drayton Valley
(53.2170°N, 114.9830°W)
Time: 04:21:59
(UTC-06:00)
Language:

Cosmos 1302 Rocket - Orbit

View from above orbital plane
View from above orbital plane
View from above satellite
View from above satellite

Ground track
Ground track

The orbit data is extracted from the following two-line orbital elements,

1 12792U 81084B   14265.03533529  .00000097  00000-0  41383-4 0  6198
2 12792 074.0298 074.3590 0014455 244.8050 254.0520 14.37133073731509
Epoch (UTC): 22 September 2014 00:50:52
Eccentricity: 0.0014455
inclination: 74.0298°
perigee height: 757 km
apogee height: 778 km
right ascension of ascending node: 74.3590°
argument of perigee: 244.8050°
revolutions per day: 14.37133073
mean anomaly at epoch: 254.0520°
orbit number at epoch: 73150

The dashed part of the orbit path shows where the satellite is in the earth's shadow,  

DLR